Location: Asis
(14.1331°N, 120.9056°E)
Time: 12:17:01
(UTC+00:00)

NOSS 3-2 (C) - Pass Details

Date: 15 January 2026
Orbit: 672 x 1536 km, 63.4° (Epoch: 2 January)

Event Time Altitude Azimuth Distance (km) Brightness Sun altitude
Rises 10:02:08 0° 339° (NNW) 4,296 6.9 -4.2°
Reaches altitude 10° 10:04:51 10° 341° (NNW) 3,420 6.3 -4.8°
Maximum altitude 10:13:31 76° 66° (ENE) 1,533 4.4 -6.8°
Drops below altitude 10° 10:22:57 10° 151° (SSE) 3,701 6.4 -8.9°
Sets 10:25:59 0° 153° (SSE) 4,661 7.0 -9.6°
